User: anonymous   Login
Location: Mentone
(34.5413°N, 85.5351°W)
Time: 15:35:56
(UTC-06:00)
Language:

A-11 Canister half - Orbit

View from above orbital plane
View from above orbital plane
View from above satellite
View from above satellite

Ground track
Ground track

The orbit data is extracted from the following two-line orbital elements,

1 00053U 60009E   14331.59709638 -.00000084  00000-0  00000+0 0  6058
2 00053 047.2780 035.1904 0100375 206.6015 302.2005 12.17156765421455
Epoch (UTC): 27 November 2014 14:19:49
Eccentricity: 0.0100375
inclination: 47.2780°
perigee height: 1525 km
apogee height: 1685 km
right ascension of ascending node: 35.1904°
argument of perigee: 206.6015°
revolutions per day: 12.17156765
mean anomaly at epoch: 302.2005°
orbit number at epoch: 42145

The dashed part of the orbit path shows where the satellite is in the earth's shadow,  

DLR